Home   Weather   Luton   Past weeks

Flag for United Kingdom Past Weather in Luton, England, United Kingdom — Yesterday and Last 2 Weeks

Now
34 °F

Chilly.


Feels Like: 25 °F
Forecast: N/A
Wind: 12 mph from Northeast

Location: Luton Airport

Current Time: Jan 20, 2017 at 8:11:12 pm

Latest Report: Jan 20, 2017 at 7:20 pm


Visibility: N/A

Pressure: 30.45 "Hg

Humidity: 87%

Dew Point: 30 °F

Location of LutonLocation

Past Weather in Luton — Graph

°F

Luton Temperature Yesterday

Maximum temperature yesterday: 43 °F (at 1:50 pm)
Minimum temperature yesterday: 30 °F (at 2:20 am)
Average temperature yesterday: 35 °F

High & Low Weather Summary for the Past Weeks

 TemperatureHumidityPressure
High50 °F (Jan 8, 1:50 pm)100% (Jan 5, 7:50 pm)30.66 "Hg (Jan 5, 7:50 pm)
Low27 °F (Jan 18, 6:50 am)48% (Jan 18, 3:20 pm)29.33 "Hg (Jan 12, 5:50 pm)
Average38 °F91%30.23 "Hg
* Reported Jan 5 6:20 pm — Jan 20 6:50 pm, Luton, Weather by CustomWeather, © 2017

Note: Actual official high and low records may vary slightly from our data, if they occured in-between our weather recording intervals... More about our weather records

Advertising

Luton Weather History for the Previous 24 Hours

Scroll right to see more
 ConditionsComfort  
Time TempWeatherWind HumidityBarometerVisibility
6:50 pm
Fri, Jan 20
34 °FChilly.10 mph81%30.45 "HgN/A
6:20 pm36 °FChilly.9 mph75%30.45 "HgN/A
5:50 pm36 °FChilly.9 mph75%30.45 "HgN/A
5:20 pm34 °FChilly.7 mph75%30.45 "HgN/A
4:50 pm37 °FChilly.8 mph70%30.45 "HgN/A
4:20 pm37 °FChilly.9 mph65%30.45 "HgN/A
3:50 pm37 °FChilly.8 mph70%30.48 "HgN/A
3:20 pm39 °FChilly.7 mph70%30.48 "HgN/A
2:50 pm41 °FQuite cool.9 mph61%30.48 "HgN/A
2:20 pm41 °FQuite cool.8 mph61%30.48 "HgN/A
1:50 pm41 °FQuite cool.8 mph61%30.48 "HgN/A
1:20 pm39 °FChilly.6 mph75%30.48 "HgN/A
12:50 pm37 °FChilly.5 mph81%30.51 "HgN/A
12:20 pm37 °FChilly.3 mph81%30.51 "HgN/A
11:50 am36 °FChilly.5 mph87%30.51 "HgN/A
11:20 am36 °FChilly.5 mph81%30.51 "HgN/A
10:50 am34 °FChilly.6 mph87%30.54 "HgN/A
10:20 am34 °FChilly.6 mph87%30.54 "HgN/A
9:50 am32 °FChilly.7 mph87%30.54 "HgN/A
9:20 am32 °FChilly.8 mph87%30.54 "HgN/A
8:50 am32 °FChilly.7 mph87%30.54 "HgN/A
8:20 am30 °FChilly.7 mph86%30.54 "HgN/A
7:50 am30 °FChilly.6 mph86%30.54 "HgN/A
7:20 am30 °FChilly.7 mph86%30.54 "HgN/A
6:50 am30 °FChilly.5 mph86%30.54 "HgN/A
6:20 am28 °FChilly.3 mph93%30.54 "HgN/A
5:50 am30 °FChilly.5 mph86%30.54 "HgN/A
5:20 am30 °FChilly.3 mph86%30.54 "HgN/A
4:50 am28 °FChilly.5 mph86%30.54 "HgN/A
4:20 am30 °FChilly.6 mph86%30.54 "HgN/A
3:50 am30 °FChilly.7 mph86%30.54 "HgN/A
3:20 am30 °FChilly.6 mph86%30.54 "HgN/A
2:50 am30 °FChilly.7 mph86%30.54 "HgN/A
2:20 am30 °FChilly.6 mph80%30.54 "HgN/A
1:50 am30 °FChilly.6 mph86%30.54 "HgN/A
1:20 am30 °FChilly.6 mph86%30.57 "HgN/A
12:50 am30 °FChilly.5 mph86%30.57 "HgN/A
12:20 am30 °FChilly.5 mph86%30.57 "HgN/A
11:50 pm
Thu, Jan 19
30 °FChilly.6 mph93%30.57 "HgN/A
11:20 pm32 °FChilly.6 mph87%30.57 "HgN/A
10:50 pm30 °FChilly.6 mph93%30.57 "Hg6 mi
10:20 pm32 °FChilly.6 mph87%30.57 "HgN/A
9:50 pm32 °FChilly.5 mph87%30.57 "Hg6 mi
9:20 pm34 °FChilly.6 mph87%30.60 "Hg5 mi
8:50 pm32 °FChilly.5 mph87%30.60 "Hg5 mi
8:20 pm32 °FChilly.6 mph87%30.60 "HgN/A
Weather by CustomWeather, © 2017

See weather overviewHow to use our weather pages